STARLINK-32264, 61642

Orbit data source: Space-Track

STARLINK-32264, 61642 is a payload satellite owned by SpaceX/Seattle (US) in LEO that was launched on Wed, 23 Oct 2024 UTC via an FALCON 9 launch vehicle from the Air Force Eastern Test Range (AFETR). Payload-class satellites include a variety of spacecraft equipped with specific instruments for various scientific and technological missions. These include communications satellites like Starlink; space stations such as the ISS; scientific satellites like the Hubble; Earth observation satellites from companies like Planet Labs, Umbra, and HawkEye 360; GPS; miniature CubeSats for education and research; and military/defense satellites.

Loading next visibility...
Identifier
61642, 2024-191X
Orbit
LEO
Country
Flag of USUS
Related business
Manufacturer
SpaceX/Seattle
Mission
Partially operational Commercial Communications
Bus & Motor
STARLINK V2M, Unknown motor
Mass
730 kg wet, ~700 kg dry
Launch date (UTC)
2024-10-23 (2 years ago)
Launch vehicle
FALCON 9
Launch site
Air Force Eastern Test Range (AFETR)
Object type
Payload
Rocket body
Debris
Shape & HBR
Box + 2 Pan, 17.7 m
Radar Cross Section
33.884 m², Large (>1 m²)

Expand to show TLE details & history
Last TLE update: 7 hours ago

TLE from 7 hours ago
0 STARLINK-32264
1 61642U 24191X   26221.81911140  .00066191  00000-0  51351-3 0  9995
2 61642  42.9883 340.9778 0026299 346.7854  13.2322 15.70448189101280
Epoch: 2026-08-09T19:39Z
TLE epoch observation values (Epoch: 2026-08-09T19:39:31.224Z)
Latitude
-0.00003°
Longitude
87.78703°
Altitude
340.146 km
Speed
7.716 km/s
True Right ascension
22h 43m 54s
True Declination
0° 00' 00"
Sunlit
Object was in full shadow at epoch
Visualization orbit readout
Latitude
Unknown
Longitude
Unknown
Altitude
Unknown
Speed
Unknown
Apparent Right ascension
Unknown
Apparent Declination
Unknown
Sunlit
N/A
Visualization observer readout
Local Sidereal Time
16:34:10
Azimuth
Unknown
Elevation
Unknown
Doppler factor
Unknown
Orbital elements
Apogee altitude
377.318 km
Perigee altitude
341.879 km
Semi-major axis
6,737.735 km
Eccentricity
0.00263
Inclination
42.9883°
RAAN
340.9778°
Arg. of periapsis
346.7854°
True anomaly
13.3014°
Mean anomaly
13.2322°
Eccentric anomaly
13.26678°
Mean motion
3.92439 °/min
Orbital period
91.73 mins
BSTAR
0.00051351
Loading maneuver chart data...
Computing Atmospheric mass density...
Loading historical data...
Loading historical data...
Loading historical data...
Loading historical data...
Loading historical data...
Loading historical data...
Loading historical data...

Documentation

Showing up to 5 results
|